Find Starlink 5579

NORAD ID: 55746 Int'l Des: 2023-028 Owner: SPXS Country: US Constellation: starlink operational
LEOCIRCULAR

实时位置

正在加载3D地球...

关于 Starlink 5579

正在加载描述...

即将过境

Passes for default location (London). Set your location on the main map for personalized predictions.

高度历史

Loading altitude history...

两行轨道根数

1 55746U 23028F 26133.13050652 .00000104 00000-0 16484-4 0 9991
2 55746 69.9996 81.9450 0002939 268.8978 91.1844 14.98324904175694
Epoch: May 13, 2026 • Age: 11 hours

当前状态

高度 579.2 km
速度 7.57 km/s
星下点 -22.71°S, 166.57°W
发射日期 Mar 3, 2023
运行时间 3.1 years
类型 internet

技术详情

分类 Payload
质量 305.00 kg
干质量 290.00 kg
总质量 305.00 kg
长度 0.20 m
直径 2.80 m
跨度 9.00 m
形状 Box + pan
制造商 SPXS
平台类型 Starlink
阶段状态 In Orbit
所有者/国家 SPXS/US

Most Searched